GOKTURK 1A
Last updated on Mon Jun 22 2026 00:02:52 GMT+0000 (Coordinated Universal Time)
1 41875U 16073A 26172.55518571 .00000275 00000+0 63156-4 0 9995
2 41875 98.1242 67.1608 0001432 78.1323 282.0039 14.62777208509467
Next 0 passes for location: London (51.5072 / 0.1276)
No passes found over London.